Location: Bascous
(43.7961°N, 0.1450°E)
Time: 13:34:25
(UTC+00:00)

Daily predictions for brighter satellites

Satellite Brightness Start Highest point End
(mag) Time Altitude Azimuth Time Altitude Azimuth Time Altitude Azimuth
Cosmos 2098 Rocket 4.3 18:46:21 10° NNW 18:49:46 43° W 18:53:56 10° SSW
STARLINK-1229 3.5 18:47:04 10° WSW 18:50:08 57° NNW 18:53:13 10° NE
STARLINK-1236 3.6 18:46:10 10° SW 18:50:14 78° SE 18:54:19 10° ENE
Cosmos 304 Rocket 4.0 18:45:53 10° NNW 18:50:35 52° ENE 18:55:14 10° SE
STARLINK-1271 3.5 18:47:31 10° WSW 18:50:35 56° NNW 18:53:41 10° NE
STARLINK-1270 3.5 18:47:59 10° WSW 18:51:03 56° NNW 18:54:08 10° NE
COSMO-SKYMED 1 4.4 18:47:21 10° N 18:51:23 38° WNW 18:55:22 10° SW
STARLINK-1154 3.6 18:48:26 10° WSW 18:51:30 55° NNW 18:54:35 10° NE
STARLINK-1116 4.0 18:48:11 10° NW 18:52:08 50° NNE 18:56:04 10° ESE
STARLINK-1197 3.6 18:49:21 10° WSW 18:52:24 54° NNW 18:55:29 10° NE
SeaSat 1 3.5 18:47:44 10° NNE 18:52:31 52° WNW 18:57:17 10° SW
Cosmos 1269 Rocket 4.3 18:47:49 10° S 18:52:48 45° ESE 18:57:50 10° NNE
STARLINK-1189 3.6 18:49:48 10° WSW 18:52:52 54° NNW 18:55:56 10° NE
STARLINK-1187 3.8 18:50:41 10° WSW 18:53:44 47° NNW 18:56:48 10° NE
STARLINK-1198 3.6 18:50:43 10° WSW 18:53:46 53° NNW 18:56:51 10° NE
STARLINK-1188 3.6 18:50:43 10° WSW 18:53:46 53° NNW 18:56:51 10° NE
STARLINK-1235 4.1 18:51:27 10° WSW 18:54:27 42° NNW 18:57:28 10° NE
STARLINK-1199 3.7 18:52:40 10° WSW 18:55:43 51° NNW 18:58:48 10° NE
STARLINK-1191 3.7 18:53:06 10° WSW 18:56:10 51° NNW 18:59:15 10° NE
SL-08 ROCKET BODY 4.5 18:50:12 10° N 18:56:18 65° E 19:02:15 10° SSE
STARLINK-1210 3.7 18:53:34 10° WSW 18:56:38 50° NNW 18:59:43 10° NE
STARLINK-1221 3.8 18:54:01 10° WSW 18:57:04 50° NNW 19:00:09 10° NE
STARLINK-1219 3.8 18:54:29 10° WSW 18:57:32 49° NNW 19:00:37 10° NE
STARLINK-1222 3.8 18:54:56 10° WSW 18:57:59 49° NNW 19:01:04 10° NE
STARLINK-1118 3.2 18:56:15 10° WNW 18:58:19 37° SW 19:00:23 10° SSE
STARLINK-1211 3.8 18:55:23 10° WSW 18:58:26 49° NNW 19:01:30 10° NE
YAOGAN 1 3.6 18:54:28 10° S 18:58:41 52° W 19:02:56 10° NNW
STARLINK-1214 3.8 18:55:50 10° WSW 18:58:53 48° NNW 19:01:57 10° NE
ISS -1.8 18:56:23 10° NW 18:59:04 22° N 19:01:44 10° ENE
STARLINK-1245 3.8 18:56:19 10° WSW 18:59:21 48° NNW 19:02:23 10° NE
STARLINK-1238 3.8 18:56:42 10° WSW 18:59:45 47° NNW 19:02:49 10° NE
STARLINK-1269 3.6 18:55:59 10° SW 19:00:04 89° NNW 19:04:09 10° NE
STARLINK-1205 3.9 18:57:39 10° WSW 19:00:40 46° NNW 19:03:42 10° NE
Cosmos 1455 Rocket 3.1 18:56:36 10° S 19:00:49 55° E 19:05:06 10° NNE
STARLINK-1204 3.9 18:58:07 10° WSW 19:01:09 46° NNW 19:04:10 10° NE
STARLINK-1094 3.8 18:57:25 10° NW 19:01:26 57° NNE 19:05:21 10° ESE
Cosmos 371 Rocket 4.1 18:57:23 10° NNW 19:02:07 57° WSW 19:06:50 10° S
Cosmos 2297 4.0 18:56:39 10° NNW 19:02:09 48° ENE 19:07:38 10° SE
S3M 4.1 18:58:17 10° S 19:04:39 84° E 19:11:05 10° N
STARLINK-1200 3.6 19:00:48 10° WSW 19:04:53 83° NNW 19:08:58 10° NE
Cosmos 2237 Rocket 2.8 18:59:37 10° SW 19:05:11 64° WNW 19:10:49 10° NNE
STARLINK-1117 3.7 19:02:16 10° NW 19:06:17 61° NNE 19:10:00 12° ESE
Cosmos 1386 Rocket 4.4 19:01:18 10° N 19:07:24 80° E 19:13:23 10° S
Cosmos 1805 3.6 19:05:09 10° SSW 19:09:02 70° W 19:12:57 10° N
Cosmos 1892 Rocket 3.6 19:05:00 10° N 19:09:30 89° W 19:13:59 10° S
STARLINK-1192 3.7 19:05:33 10° WSW 19:09:38 77° NNW 19:13:43 10° NE
CZ-2C R/B 4.0 19:06:50 10° NE 19:10:07 17° E 19:13:23 10° SE
Cosmos 1626 Rocket 4.3 19:06:15 10° N 19:10:12 32° ENE 19:14:06 10° SE
STARLINK-1078 3.7 19:06:42 10° NW 19:10:44 66° NNE 19:14:17 13° ESE
BREEZE-M DEB (TANK) 3.7 18:59:35 10° WNW 19:12:25 66° SW 19:15:44 10° SE
Cosmos 2278 Rocket 3.4 19:07:47 10° NW 19:13:08 44° WSW 19:18:27 10° S
Meteor 2-5 Rocket 3.9 19:08:14 10° NNW 19:13:54 77° W 19:19:25 10° S
STARLINK-1244 3.8 19:10:29 10° WSW 19:14:33 72° NNW 19:18:38 10° NE
ARGOS 3.4 19:10:00 10° SE 19:15:13 52° ENE 19:20:26 10° N
STARLINK-1108 3.6 19:11:33 10° NW 19:15:37 71° NNE 19:18:58 15° ESE
Cosmos 1602 Rocket 4.4 19:14:15 10° NNE 19:18:13 30° ENE 19:21:45 12° SE
STARLINK-1138 3.9 19:15:06 10° WSW 19:19:10 67° NNW 19:23:15 10° NE
STARLINK-1071 3.6 19:16:12 10° NW 19:20:16 76° NNE 19:23:26 16° ESE
Cosmos 494 Rocket 4.3 19:16:01 10° SSW 19:21:08 74° WNW 19:26:22 10° NNE
Okean 1-7 Rocket 3.7 19:17:08 10° N 19:21:32 78° W 19:25:54 10° S
USA 186 2.0 19:19:04 10° SSE 19:22:26 58° ENE 19:25:47 10° N
STARLINK-1143 4.0 19:20:01 10° WSW 19:24:04 62° NNW 19:28:08 10° NE
STARLINK-1110 3.5 19:20:40 10° NW 19:24:44 81° NE 19:27:43 18° ESE
Meteor 1-24 Rocket 3.7 19:19:37 10° NNW 19:25:09 83° W 19:30:30 10° S
STARLINK-1124 3.6 19:22:02 10° NW 19:26:12 84° NE 19:29:13 18° ESE
CZ-2C R/B 2.9 19:22:34 10° SSE 19:27:36 69° ENE 19:32:26 10° N
Cosmos 1544 Rocket 3.5 19:24:00 10° S 19:28:23 82° E 19:32:50 10° N
Cosmos 1470 2.8 19:26:42 10° S 19:30:27 51° E 19:34:14 10° NNE
Cosmos 1331 Rocket 4.3 19:25:30 10° NNW 19:30:38 69° WSW 19:35:45 10° S
STARLINK-1241 4.2 19:28:26 10° WSW 19:32:25 55° NNW 19:36:25 10° NE
Cosmos 883 Rocket 4.5 19:27:30 10° S 19:33:41 85° E 19:39:59 10° N
CZ-4 R/B 4.4 19:31:46 10° SW 19:34:01 15° W 19:36:16 10° NW
STARLINK-1122 3.5 19:30:06 10° NW 19:34:11 87° SW 19:36:48 21° SE
SPOT 3 Rocket 3.9 19:29:48 12° SE 19:34:24 46° ENE 19:39:22 10° N
MOS 1 4.2 19:30:36 10° SSE 19:36:15 83° ENE 19:41:56 10° NNW
STARLINK-1239 4.4 19:33:24 10° WSW 19:37:21 51° NNW 19:41:19 10° NE
STARLINK-1126 3.6 19:35:05 10° WNW 19:39:09 80° SW 19:41:36 23° SE
Cosmos 2369 Rocket 3.1 19:35:18 10° N 19:40:25 33° NE 19:43:14 21° E
SJ-6B 2.8 19:36:28 10° SSE 19:40:31 74° ENE 19:44:37 10° N
Cosmos 1733 4.5 19:37:49 10° SSW 19:41:24 43° WNW 19:45:02 10° N
H-2A R/B 4.2 19:32:15 10° W 19:41:39 19° SW 19:45:18 10° S
STARLINK-1240 4.5 19:38:09 10° WSW 19:42:05 48° NNW 19:46:02 10° NE
Cosmos 1726 3.5 19:42:57 21° ENE 19:42:57 21° ENE 19:45:15 10° NE
Ariane Rocket 3.5 19:38:31 10° S 19:43:32 63° WSW 19:48:35 10° NNW
STARLINK-1082 3.6 19:39:34 10° WNW 19:43:39 74° SW 19:45:55 25° SE
Cosmos 1758 3.2 19:40:20 10° S 19:44:24 70° E 19:48:29 10° NNE
Aureole 2 Rocket 3.8 19:42:50 10° N 19:45:42 23° ENE 19:45:56 23° ENE
NOSS 3-3 (A) 4.4 19:41:51 10° S 19:46:58 34° ESE 19:52:35 10° NE
Cosmos 1758 Rocket 4.5 19:43:16 10° NNE 19:47:03 28° ENE 19:47:53 26° E
NOSS 3-3 (C) 4.4 19:41:58 10° S 19:47:05 34° ESE 19:52:41 10° NE
STARLINK-1130 (DARKSAT) 4.5 19:44:20 10° NW 19:48:15 39° NNE 19:50:10 24° ENE
STARLINK-1100 3.7 19:44:30 10° WNW 19:48:33 68° SW 19:50:39 27° SE
CZ-2C R/B 3.7 19:45:44 10° NNE 19:50:28 63° ESE 19:55:07 10° S
STARLINK-1084 4.4 19:49:17 10° NW 19:53:14 41° NNE 19:54:56 27° ENE
STARLINK-1083 3.8 19:49:16 10° WNW 19:53:18 63° SW 19:55:12 29° SSE
Cosmos 2184 Rocket 4.3 19:50:15 10° N 19:56:18 45° ENE 19:59:37 25° SE
IRIDIUM 106 4.4 19:51:25 10° N 19:56:34 58° E 20:00:12 19° SSE
STARLINK-1125 3.9 19:53:48 10° WNW 19:57:49 58° SW 19:59:33 31° SSE
SL-14 R/B 4.3 19:54:13 10° NNW 19:58:07 47° W 20:01:59 10° SSW
STARLINK-1098 4.3 19:54:16 10° NW 19:58:15 44° NNE 19:59:43 31° ENE
Cosmos 1943 Rocket 2.2 19:56:33 10° NNW 20:02:01 59° ENE 20:04:35 31° SE
Cosmos 1943 3.8 20:01:05 28° SE 20:02:23 32° ESE 20:07:21 10° NE
STARLINK-1109 4.1 19:58:38 10° WNW 20:02:37 53° SW 20:04:12 32° SSE
Meteor 1-21 Rocket 4.1 19:57:17 10° N 20:02:50 64° ENE 20:06:08 24° SSE
STARLINK-1123 4.2 19:59:14 10° NW 20:03:15 46° NNE 20:04:30 34° ENE
Meteor 2-10 4.3 20:00:44 16° SSE 20:04:46 49° E 20:10:04 10° NNE
SL-8 R/B 4.2 20:00:41 10° WNW 20:05:21 51° N 20:07:34 28° ENE
STARLINK-1091 4.2 20:03:29 10° WNW 20:07:26 49° SW 20:08:50 33° S
Resurs 1-3 3.5 20:05:32 32° SSE 20:07:30 72° ENE 20:11:54 10° N
STARLINK-1097 4.1 20:04:11 10° NW 20:08:14 49° NNE 20:09:16 39° ENE
Cosmos 1626 3.8 20:06:19 10° NNW 20:09:40 33° W 20:13:00 10° SSW
ATLAS 2AS CENTAUR R/B 4.0 20:04:06 10° NNW 20:10:49 31° NNE 20:14:22 21° ENE
STARLINK-1099 4.0 20:09:10 10° NW 20:13:14 53° NNE 20:14:04 44° ENE
H-2A R/B 3.3 20:09:12 10° SSW 20:14:11 41° W 20:19:07 10° NNW
Aureole 3 3.6 20:12:25 10° S 20:16:16 81° W 20:21:20 10° N
SL-08 RB Rocket 4.2 20:12:30 14° S 20:16:19 57° W 20:20:50 10° NNW
USA 234 3.3 20:10:44 10° NE 20:17:18 85° NW 20:23:51 10° SW
Cosmos 2154 Rocket 4.4 20:11:22 10° N 20:17:23 42° ENE 20:18:59 36° ESE
STARLINK-1072 4.5 20:13:38 10° WNW 20:17:25 39° SW 20:18:25 33° S
Resurs 01 Rocket 1.6 20:16:28 49° SE 20:17:25 64° ENE 20:21:48 10° N
STARLINK-1104 3.8 20:14:09 10° NW 20:18:14 56° NNE 20:18:51 50° ENE
SL-16 R/B 3.3 20:14:24 10° SW 20:19:48 45° WNW 20:25:14 10° NNE
DMSP B5D2-2 3.9 20:14:47 10° NNE 20:20:02 84° ESE 20:25:15 10° SSW
Cosmos 2228 3.8 20:22:39 35° NE 20:22:39 35° NE 20:25:37 10° NNE
Abrixas rocket 3.0 20:18:42 10° WSW 20:20:46 41° WSW 20:20:46 41° WSW
STARLINK-1144 3.7 20:19:07 10° NW 20:23:14 60° NNE 20:23:38 57° ENE
Cosmos 1953 2.4 20:23:07 24° SSW 20:25:26 74° W 20:29:24 10° N
STARLINK-1103 3.6 20:24:05 10° NW 20:28:13 65° NNE 20:28:25 64° NE
Cosmos 1992 Rocket 3.9 20:26:37 10° NNW 20:31:52 84° ENE 20:33:07 53° SSE
Nadezhda 1 Rocket 4.0 20:29:47 36° SSE 20:32:18 59° E 20:38:34 10° NNE
STARLINK-1101 3.6 20:29:03 10° NW 20:33:12 70° NNE 20:33:12 70° NNE
ISS -2.5 20:33:08 10° NW 20:35:39 39° NNW 20:35:39 39° NNW
STARLINK-1102 3.6 20:34:01 10° NW 20:37:58 73° N 20:37:58 73° N
MetOp-B 4.1 20:40:10 60° ESE 20:40:52 67° ENE 20:46:12 10° N
Cosmos 1603 3.5 20:35:48 10° SSW 20:41:27 83° ESE 20:47:06 10° NNE
Cosmos 2251 Rocket 3.7 20:37:03 10° SSW 20:42:23 72° WNW 20:47:47 10° NNE
Meteor 1-16 Rocket 4.0 20:40:19 32° S 20:42:53 90° E 20:48:22 10° N
STARLINK-1111 3.8 20:39:00 10° NW 20:42:45 70° NNW 20:42:45 70° NNW
Cosmos 2084 Rocket 3.5 20:39:00 10° NW 20:43:29 78° SW 20:43:30 78° SW
Cosmos 1703 4.1 20:41:04 10° N 20:43:49 42° N 20:43:49 42° N
ERS-1 Rocket 4.0 20:48:38 31° NE 20:48:38 31° NE 20:52:12 10° N
STARLINK-1073 3.9 20:43:59 10° NW 20:47:33 64° NW 20:47:33 64° NW
Landsat 7 4.4 20:49:39 43° NE 20:49:39 43° NE 20:53:24 10° N
Cosmos 2074 Rocket 4.2 20:43:40 10° NNW 20:49:55 71° W 20:53:01 32° S
CZ-2C R/B 2.9 20:45:44 10° N 20:50:51 62° WNW 20:55:39 12° SSW
STARLINK-1121 4.1 20:48:57 10° NW 20:52:19 57° WNW 20:52:19 57° WNW
Cosmos 292 Rocket 4.4 20:51:46 10° NNW 20:56:25 51° WSW 20:57:04 47° SW
STARLINK-1106 4.4 20:53:54 10° WNW 20:57:04 51° WNW 20:57:04 51° WNW
Cosmos 1656 Rocket 3.7 20:56:35 10° NNW 21:02:03 65° NE 21:02:03 65° NE
Aureole 1 Rocket 4.3 21:01:50 56° SE 21:03:03 62° ESE 21:09:45 10° NNE
Cosmos 1610 Rocket 4.4 20:58:02 10° N 21:04:17 83° W 21:05:25 62° S
Meteor 1-11 4.1 20:58:36 10° N 21:04:26 81° E 21:04:29 81° E
COSMOS 2455 4.0 21:10:02 10° NNW 21:15:09 31° NE 21:15:09 31° NE
Cosmos 1726 4.3 21:17:22 24° WNW 21:17:24 24° WNW 21:20:31 10° NNW
Cosmos 2341 Rocket 4.0 21:16:46 10° N 21:22:43 72° NE 21:22:43 72° NE
Cosmos 2369 Rocket 3.0 21:19:13 10° NW 21:24:32 41° WSW 21:25:03 40° WSW
NOSS 3-4 (A) 3.9 21:22:56 10° NNW 21:29:53 64° NE 21:30:09 64° ENE
NOSS 3-4 (C) 3.9 21:23:02 10° NNW 21:29:59 64° NE 21:30:14 63° ENE
Terra 3.5 21:32:45 27° N 21:32:45 27° N 21:35:04 10° N
Spot 2 Rocket 4.4 21:35:52 44° W 21:35:52 44° W 21:40:18 10° NNW
SPOT 1/Viking Rocket 4.4 21:41:27 49° NW 21:41:27 49° NW 21:45:25 10° NNW
Cosmos 1943 Rocket 4.1 21:41:17 10° NW 21:45:17 21° W 21:46:08 20° WSW
Cosmos 1943 4.3 21:42:19 17° WSW 21:46:17 41° WNW 21:51:39 10° NNE
Resurs 01 Rocket 4.3 21:54:01 13° W 21:54:20 13° W 21:56:19 10° WNW
USA 234 4.5 21:53:57 10° NE 21:59:51 37° NNW 22:05:43 10° W
ATLAS 2AS CENTAUR R/B 2.9 21:55:05 10° NW 22:01:48 71° WNW 22:01:48 71° WNW
